This is the latest recevied weather packets stored in our database for station/object OK2ILA-6. If no packets are shown the sender has not sent any weather packets the latest 10 day(s).
| Time | Temp. | Humidity | Pressure | Rain* | Wind** | Luminosity | Snow |
|---|---|---|---|---|---|---|---|
| 1777573803 | 11.11° C | 48% | 1027 hPa | - | - | - | - |
| 1777573203 | 11.11° C | 48% | 1026.9 hPa | - | - | - | - |
| 1777572603 | 11.67° C | 48% | 1026.9 hPa | - | - | - | - |
| 1777572003 | 12.22° C | 46% | 1026.8 hPa | - | - | - | - |
| 1777571403 | 12.22° C | 44% | 1026.8 hPa | - | - | - | - |
| 1777570803 | 12.78° C | 42% | 1026.8 hPa | - | - | - | - |
| 1777570203 | 13.33° C | 41% | 1026.6 hPa | - | - | - | - |
| 1777569602 | 13.33° C | 40% | 1026.6 hPa | - | - | - | - |
| 1777569003 | 13.33° C | 39% | 1026.7 hPa | - | - | - | - |
| 1777568403 | 13.33° C | 38% | 1026.7 hPa | - | - | - | - |
| 1777567803 | 13.89° C | 38% | 1026.6 hPa | - | - | - | - |
| 1777567203 | 14.44° C | 36% | 1026.6 hPa | - | - | - | - |
| 1777566602 | 14.44° C | 35% | 1026.8 hPa | - | - | - | - |
| 1777566003 | 14.44° C | 34% | 1026.6 hPa | - | - | - | - |
| 1777565403 | 14.44° C | 34% | 1026.6 hPa | - | - | - | - |
| 1777564803 | 15° C | 33% | 1026.5 hPa | - | - | - | - |
| 1777564203 | 15.56° C | 33% | 1026.8 hPa | - | - | - | - |
| 1777563603 | 15° C | 32% | 1026.8 hPa | - | - | - | - |
| 1777563003 | 14.44° C | 32% | 1027 hPa | - | - | - | - |
| 1777562403 | 15° C | 32% | 1026.9 hPa | - | - | - | - |
| 1777561803 | 14.44° C | 32% | 1026.9 hPa | - | - | - | - |
| 1777561203 | 14.44° C | 32% | 1027 hPa | - | - | - | - |
| 1777560602 | 14.44° C | 32% | 1027.2 hPa | - | - | - | - |
| 1777560003 | 14.44° C | 32% | 1027.2 hPa | - | - | - | - |
| 1777559403 | 14.44° C | 32% | 1027.2 hPa | - | - | - | - |
* Rain since midnight (hover to see other rain measurements)
** Current wind speed in m/s (hover to see current wind gust speed)